Flag for U.S.A. Weather past 2 weeks in Kennebunk, Maine, U.S.A.

Now
18 °F

Overcast.


Feels Like: 18 °F
Forecast: 24 / 34 °F
Wind: No wind

Location: Sanford Municipal

Current Time: Jan 29, 2015 at 9:46:55 PM

Latest Report: Jan 29, 2015 at 9:15 PM


Visibility: 10 mi

Pressure: 30.09 "Hg

Humidity: 79%

Dew point: 12 °F

Location of KennebunkLocation

Historic Weather in Kennebunk — Graph

°F

Kennebunk temperature yesterday

Maximum temperature yesterday: 25 °F (at 12:55 PM)
Minimum temperature yesterday: -8 °F (at 11:55 PM)
Average temperature yesterday: 16 °F

Past Weeks' High & Low Weather Summary

 TemperatureHumidityPressure
High46 °F (Jan 18, 8:55 PM)100% (Jan 15, 7:55 PM)30.34 "Hg (Jan 15, 7:55 PM)
Low-18 °F (Jan 29, 6:15 AM)27% (Jan 17, 1:55 PM)29.18 "Hg (Jan 24, 7:55 PM)
Average21 °F62%29.91 "Hg
* Reported Jan 14 8:15 PM — Jan 29 8:35 PM, Kennebunk, Weather by CustomWeather, © 2014

Note: Actual official high and low records may vary slightly from our data, if they occured in-between our weather recording intervals... More about our weather records

Advertising

Kennebunk weather history for previous 24 hours

 ConditionsComfort  
Time TempWeatherWind HumidityBarometerVisibility
8:35 PM
Jan 29
18 °FPassing clouds.No wind86%30.10 "Hg10 mi
8:15 PM18 °FPassing clouds.No wind79%30.11 "Hg10 mi
7:55 PM18 °FPassing clouds.No wind86%30.13 "Hg10 mi
7:35 PM16 °FClear.No wind86%30.13 "Hg10 mi
7:15 PM16 °FPassing clouds.No wind79%30.14 "Hg10 mi
6:55 PM16 °FClear.No wind79%30.15 "Hg10 mi
6:35 PM16 °FClear.No wind73%30.15 "Hg10 mi
6:15 PM16 °FClear.No wind67%30.15 "Hg10 mi
5:55 PM18 °FClear.No wind62%30.16 "Hg10 mi
5:35 PM21 °FClear.No wind74%30.16 "Hg10 mi
5:15 PM25 °FClear.No wind63%30.16 "Hg10 mi
4:55 PM25 °FClear.5 mph59%30.16 "Hg10 mi
4:35 PM27 °FSunny.3 mph50%30.17 "Hg10 mi
4:15 PM27 °FSunny.3 mph50%30.16 "Hg10 mi
3:55 PM28 °FSunny.5 mph40%30.17 "Hg10 mi
3:35 PM28 °FSunny.5 mph34%30.18 "Hg10 mi
3:15 PM28 °FSunny.6 mph31%30.18 "Hg10 mi
2:55 PM30 °FSunny.8 mph31%30.19 "Hg10 mi
2:35 PM30 °FSunny.6 mph31%30.19 "Hg10 mi
2:15 PM30 °FSunny.No wind31%30.20 "Hg9 mi
1:55 PM28 °FPassing clouds.No wind47%30.21 "Hg10 mi
1:35 PM28 °FSunny.3 mph37%30.21 "Hg2 mi
1:15 PM25 °FSunny.No wind46%30.22 "Hg10 mi
12:55 PM25 °FSunny.No wind39%30.23 "Hg10 mi
12:35 PM25 °FSunny.3 mph36%30.24 "Hg10 mi
11:55 AM25 °FSunny.No wind36%30.26 "Hg10 mi
11:35 AM23 °FSunny.No wind39%30.28 "Hg10 mi
11:15 AM21 °FSunny.No wind49%30.29 "Hg10 mi
10:55 AM18 °FSunny.No wind53%30.30 "Hg10 mi
10:35 AM12 °FSunny.No wind62%30.30 "Hg10 mi
10:15 AM16 °FSunny.No wind45%30.30 "Hg10 mi
9:55 AM14 °FSunny.No wind52%30.30 "Hg10 mi
9:35 AM10 °FSunny.No wind67%30.30 "Hg10 mi
9:15 AM7 °FSunny.No wind72%30.30 "Hg10 mi
8:55 AM1 °FSunny.No wind71%30.29 "Hg5 mi
8:35 AM-2 °FSunny.3 mph100%30.29 "Hg7 mi
8:15 AM-11 °FSunny.No wind91%30.29 "Hg9 mi
7:55 AM-15 °FSunny.No wind69%30.29 "Hg9 mi
7:35 AM-17 °FSunny.3 mph83%30.28 "Hg7 mi
7:15 AM-17 °FSunny.No wind57%30.27 "Hg5 mi
6:55 AM-18 °FClear.5 mph75%30.26 "Hg6 mi
6:35 AM-17 °FClear.3 mph83%30.26 "Hg9 mi
6:15 AM-18 °FClear.5 mph75%30.26 "Hg10 mi
5:55 AM-17 °FClear.No wind57%30.26 "Hg10 mi
5:35 AM-17 °FClear.No wind69%30.26 "Hg10 mi
5:15 AM-17 °FClear.No wind69%30.26 "Hg10 mi
4:55 AM-15 °FClear.3 mph69%30.27 "Hg10 mi
4:35 AM-15 °FClear.No wind63%30.26 "Hg10 mi
4:15 AM-15 °FClear.3 mph83%30.26 "Hg10 mi
3:55 AM-15 °FClear.6 mph91%30.24 "Hg10 mi
3:35 AM-15 °FClear.3 mph69%30.24 "Hg10 mi
3:15 AM-15 °FClear.5 mph63%30.24 "Hg10 mi
2:55 AM-11 °FClear.No wind70%30.24 "Hg9 mi
2:35 AM-13 °FClear.No wind76%30.24 "Hg9 mi
2:15 AM-11 °FClear.3 mph70%30.24 "Hg10 mi
1:55 AM-11 °FClear.No wind63%30.24 "Hg10 mi
1:35 AM-11 °FClear.No wind76%30.24 "Hg10 mi
1:15 AM-9 °FClear.No wind77%30.23 "Hg10 mi
12:55 AM-13 °FClear.No wind63%30.22 "Hg10 mi
12:35 AM-8 °FClear.No wind84%30.21 "Hg10 mi
12:15 AM-9 °FClear.No wind70%30.21 "Hg10 mi
11:55 PM
Jan 28
-8 °FClear.No wind64%30.20 "Hg10 mi
11:35 PM-6 °FClear.No wind77%30.19 "Hg10 mi
11:15 PM-6 °FClear.3 mph100%30.18 "Hg10 mi
10:55 PM-6 °FClear.No wind59%30.17 "Hg10 mi
10:35 PM0 °FClear.No wind78%30.17 "Hg10 mi
10:15 PM-2 °FClear.3 mph49%30.16 "Hg10 mi
9:55 PM1 °FClear.5 mph78%30.16 "Hg10 mi
9:35 PM3 °FClear.No wind60%30.16 "Hg10 mi
9:15 PM7 °FClear.6 mph56%30.15 "Hg10 mi
Weather by CustomWeather, © 2014

See weather overviewHow to use our weather pages